Regional Weather Roundup
Issued by NWS

Home | Current Version | Previous Version | Graphics & Text | Print | Product List | Glossary On
Versions: 1 2 3 4 5 6 7 8 9 10 11 12 13 14 15 16 17 18 19 20 21 22 23 24 25 26 27 28 29 30 31 32 33 34 35 36 37 38 39 40 41 42 43 44 45 46 47 48 49 50
000
ASUS43 KLMK 271102
RWRKY
KENTUCKY REGIONAL WEATHER ROUNDUP
NATIONAL WEATHER SERVICE LOUISVILLE KY
700 AM EDT TUE SEP 27 2016

NOTE "FAIR" INDICATES FEW OR NO CLOUDS BELOW 12,000 FEET
WITH NO SIGNIFICANT WEATHER AND/OR OBSTRUCTIONS TO VISIBILITY.

KYZ001>023-026-027-061>063-070>075-271200-
WESTERN AND SOUTH CENTRAL KENTUCKY

CITY           SKY/WX    TMP DP  RH WIND       PRES   REMARKS
PADUCAH        CLEAR     46  44  93 CALM      30.05S FOG
HENDERSON      CLEAR     46  43  87 CALM      30.03S
OWENSBORO      NOT AVBL
HOPKINSVILLE   FOG       48  48  99 CALM      30.05S VSB 1/4
BOWLING GREEN  FOG       48  47  96 CALM      30.05F VSB 1/4
GLASGOW        FOG      N/A N/A N/A CALM      30.05S VSB 3/4
$$

KYZ024-025-028>034-038-045-046-053-271200-
NORTH CENTRAL KENTUCKY

CITY           SKY/WX    TMP DP  RH WIND       PRES   REMARKS
LOUISVILLE/SDF CLEAR     52  49  89 CALM      30.02F
LOUISVILLE/LOU CLEAR     51  47  86 CALM      30.03F
FORT KNOX      FOG       47  47  99 SW2       30.02S VSB 1/4
$$

KYZ035>037-039>044-047>052-055>060-089>105-271200-
NORTHEAST KENTUCKY

CITY           SKY/WX    TMP DP  RH WIND       PRES   REMARKS
LEXINGTON      CLEAR     50  48  93 SW5       30.03F
COVINGTON      CLEAR     49  48  97 S6        30.00F
FRANKFORT      CLEAR     50  47  89 CALM      30.02F
$$

KYZ054-064>069-076>088-106>120-271200-
SOUTHEAST KENTUCKY

CITY           SKY/WX    TMP DP  RH WIND       PRES   REMARKS
JACKSON        FOG       51  50  96 CALM      30.05F VSB 1/4
LONDON         CLOUDY    47  45  93 CALM      30.06S FOG
SOMERSET       FOG       50  50 100 CALM      30.08R VSB<1/4
MIDDLESBORO    CLOUDY    60  55  84 N6        30.06R
MONTICELLO     FOG       49  49 100 CALM      30.09R VSB 1/4
$$





USA.gov is the U.S. government's official web portal to all federal, state and local government web resources and services.